Year,Month,Day,Hour,Minute,Value (Times are PST for temperature in C)
2015,06,10,00,00,14.50
2015,06,10,00,01,14.50
2015,06,10,00,02,14.40
2015,06,10,00,03,14.40
2015,06,10,00,04,14.40
2015,06,10,00,05,14.40
2015,06,10,00,06,14.40
2015,06,10,00,07,14.30
2015,06,10,00,08,14.30
2015,06,10,00,09,14.30
2015,06,10,00,10,14.30
2015,06,10,00,11,14.30
2015,06,10,00,12,14.30
2015,06,10,00,13,14.30
2015,06,10,00,14,14.30
2015,06,10,00,15,14.30
2015,06,10,00,16,14.30
2015,06,10,00,17,14.30
2015,06,10,00,18,14.30
2015,06,10,00,19,14.30
2015,06,10,00,20,14.30
2015,06,10,00,21,14.30
2015,06,10,00,22,14.20
2015,06,10,00,23,14.20
2015,06,10,00,24,14.20
2015,06,10,00,25,14.20
2015,06,10,00,26,14.20
2015,06,10,00,27,14.20
2015,06,10,00,28,14.20
2015,06,10,00,29,14.20
2015,06,10,00,30,14.10
2015,06,10,00,31,14.10
2015,06,10,00,32,14.10
2015,06,10,00,33,14.10
2015,06,10,00,34,14.10
2015,06,10,00,35,14.10
2015,06,10,00,36,14.20
2015,06,10,00,37,14.20
2015,06,10,00,38,14.20
2015,06,10,00,39,14.20
2015,06,10,00,40,14.20
2015,06,10,00,41,14.20
2015,06,10,00,42,14.20
2015,06,10,00,43,14.20
2015,06,10,00,44,14.20
2015,06,10,00,45,14.20
2015,06,10,00,46,14.10
2015,06,10,00,47,14.10
2015,06,10,00,48,14.10
2015,06,10,00,49,14.10
2015,06,10,00,50,14.10
2015,06,10,00,51,14.10
2015,06,10,00,52,14.10
2015,06,10,00,53,14.10
2015,06,10,00,54,14.10
2015,06,10,00,55,14.00
2015,06,10,00,56,14.00
2015,06,10,00,57,14.00
2015,06,10,00,58,14.00
2015,06,10,00,59,13.90
2015,06,10,01,00,13.90
2015,06,10,01,01,13.90
2015,06,10,01,02,13.90
2015,06,10,01,03,13.90
2015,06,10,01,04,13.90
2015,06,10,01,05,13.90
2015,06,10,01,06,13.90
2015,06,10,01,07,13.90
2015,06,10,01,08,13.90
2015,06,10,01,09,13.80
2015,06,10,01,10,13.80
2015,06,10,01,11,13.80
2015,06,10,01,12,13.80
2015,06,10,01,13,13.80
2015,06,10,01,14,13.80
2015,06,10,01,15,13.70
2015,06,10,01,16,13.70
2015,06,10,01,17,13.70
2015,06,10,01,18,13.70
2015,06,10,01,19,13.70
2015,06,10,01,20,13.70
2015,06,10,01,21,13.70
2015,06,10,01,22,13.70
2015,06,10,01,23,13.70
2015,06,10,01,24,13.70
2015,06,10,01,25,13.70
2015,06,10,01,26,13.70
2015,06,10,01,27,13.70
2015,06,10,01,28,13.70
2015,06,10,01,29,13.70
2015,06,10,01,30,13.70
2015,06,10,01,31,13.60
2015,06,10,01,32,13.60
2015,06,10,01,33,13.60
2015,06,10,01,34,13.60
2015,06,10,01,35,13.60
2015,06,10,01,36,13.50
2015,06,10,01,37,13.50
2015,06,10,01,38,13.50
2015,06,10,01,39,13.50
2015,06,10,01,40,13.40
2015,06,10,01,41,13.40
2015,06,10,01,42,13.40
2015,06,10,01,43,13.40
2015,06,10,01,44,13.40
2015,06,10,01,45,13.40
2015,06,10,01,46,13.30
2015,06,10,01,47,13.30
2015,06,10,01,48,13.30
2015,06,10,01,49,13.30
2015,06,10,01,50,13.30
2015,06,10,01,51,13.30
2015,06,10,01,52,13.30
2015,06,10,01,53,13.30
2015,06,10,01,54,13.30
2015,06,10,01,55,13.30
2015,06,10,01,56,13.20
2015,06,10,01,57,13.20
2015,06,10,01,58,13.20
2015,06,10,01,59,13.20
2015,06,10,02,00,13.20
2015,06,10,02,01,13.20
2015,06,10,02,02,13.20
2015,06,10,02,03,13.20
2015,06,10,02,04,13.10
2015,06,10,02,05,13.10
2015,06,10,02,06,13.10
2015,06,10,02,07,13.10
2015,06,10,02,08,13.10
2015,06,10,02,09,13.10
2015,06,10,02,10,13.00
2015,06,10,02,11,13.00
2015,06,10,02,12,13.00
2015,06,10,02,13,13.00
2015,06,10,02,14,12.90
2015,06,10,02,15,12.90
2015,06,10,02,16,12.90
2015,06,10,02,17,12.90
2015,06,10,02,18,12.90
2015,06,10,02,19,12.80
2015,06,10,02,20,12.80
2015,06,10,02,21,12.80
2015,06,10,02,22,12.80
2015,06,10,02,23,12.80
2015,06,10,02,24,12.70
2015,06,10,02,25,12.70
2015,06,10,02,26,12.70
2015,06,10,02,27,12.70
2015,06,10,02,28,12.70
2015,06,10,02,29,12.60
2015,06,10,02,30,12.60
2015,06,10,02,31,12.60
2015,06,10,02,32,12.60
2015,06,10,02,33,12.60
2015,06,10,02,34,12.50
2015,06,10,02,35,12.50
2015,06,10,02,36,12.50
2015,06,10,02,37,12.50
2015,06,10,02,38,12.50
2015,06,10,02,39,12.50
2015,06,10,02,40,12.50
2015,06,10,02,41,12.50
2015,06,10,02,42,12.40
2015,06,10,02,43,12.40
2015,06,10,02,44,12.40
2015,06,10,02,45,12.30
2015,06,10,02,46,12.30
2015,06,10,02,47,12.30
2015,06,10,02,48,12.30
2015,06,10,02,49,12.30
2015,06,10,02,50,12.20
2015,06,10,02,51,12.20
2015,06,10,02,52,12.20
2015,06,10,02,53,12.10
2015,06,10,02,54,12.10
2015,06,10,02,55,12.10
2015,06,10,02,56,12.00
2015,06,10,02,57,12.00
2015,06,10,02,58,11.90
2015,06,10,02,59,11.80
2015,06,10,03,00,11.80
2015,06,10,03,01,11.70
2015,06,10,03,02,11.70
2015,06,10,03,03,11.70
2015,06,10,03,04,11.60
2015,06,10,03,05,11.60
2015,06,10,03,06,11.50
2015,06,10,03,07,11.50
2015,06,10,03,08,11.40
2015,06,10,03,09,11.40
2015,06,10,03,10,11.40
2015,06,10,03,11,11.30
2015,06,10,03,12,11.30
2015,06,10,03,13,11.30
2015,06,10,03,14,11.20
2015,06,10,03,15,11.20
2015,06,10,03,16,11.20
2015,06,10,03,17,11.20
2015,06,10,03,18,11.10
2015,06,10,03,19,11.10
2015,06,10,03,20,11.10
2015,06,10,03,21,11.10
2015,06,10,03,22,11.00
2015,06,10,03,23,11.00
2015,06,10,03,24,11.00
2015,06,10,03,25,10.90
2015,06,10,03,26,10.90
2015,06,10,03,27,10.90
2015,06,10,03,28,10.90
2015,06,10,03,29,10.90
2015,06,10,03,30,10.80
2015,06,10,03,31,10.80
2015,06,10,03,32,10.80
2015,06,10,03,33,10.80
2015,06,10,03,34,10.80
2015,06,10,03,35,10.80
2015,06,10,03,36,10.80
2015,06,10,03,37,10.80
2015,06,10,03,38,10.70
2015,06,10,03,39,10.70
2015,06,10,03,40,10.70
2015,06,10,03,41,10.70
2015,06,10,03,42,10.70
2015,06,10,03,43,10.70
2015,06,10,03,44,10.70
2015,06,10,03,45,10.70
2015,06,10,03,46,10.70
2015,06,10,03,47,10.70
2015,06,10,03,48,10.70
2015,06,10,03,49,10.70
2015,06,10,03,50,10.80
2015,06,10,03,51,10.80
2015,06,10,03,52,10.80
2015,06,10,03,53,10.80
2015,06,10,03,54,10.80
2015,06,10,03,55,10.80
2015,06,10,03,56,10.80
2015,06,10,03,57,10.80
2015,06,10,03,58,10.80
2015,06,10,03,59,10.80
2015,06,10,04,00,10.80
2015,06,10,04,01,10.80
2015,06,10,04,02,10.70
2015,06,10,04,03,10.70
2015,06,10,04,04,10.70
2015,06,10,04,05,10.70
2015,06,10,04,06,10.70
2015,06,10,04,07,10.70
2015,06,10,04,08,10.70
2015,06,10,04,09,10.70
2015,06,10,04,10,10.70
2015,06,10,04,11,10.80
2015,06,10,04,12,10.70
2015,06,10,04,13,10.80
2015,06,10,04,14,10.80
2015,06,10,04,15,10.80
2015,06,10,04,16,10.80
2015,06,10,04,17,10.80
2015,06,10,04,18,10.80
2015,06,10,04,19,10.80
2015,06,10,04,20,10.90
2015,06,10,04,21,10.90
2015,06,10,04,22,11.00
2015,06,10,04,23,11.00
2015,06,10,04,24,11.10
2015,06,10,04,25,11.10
2015,06,10,04,26,11.20
2015,06,10,04,27,11.20
2015,06,10,04,28,11.20
2015,06,10,04,29,11.20
2015,06,10,04,30,11.20
2015,06,10,04,31,11.20
2015,06,10,04,32,11.20
2015,06,10,04,33,11.20
2015,06,10,04,34,11.20
2015,06,10,04,35,11.20
2015,06,10,04,36,11.20
2015,06,10,04,37,11.20
2015,06,10,04,38,11.20
2015,06,10,04,39,11.20
2015,06,10,04,40,11.30
2015,06,10,04,41,11.30
2015,06,10,04,42,11.30
2015,06,10,04,43,11.30
2015,06,10,04,44,11.30
2015,06,10,04,45,11.30
2015,06,10,04,46,11.30
2015,06,10,04,47,11.30
2015,06,10,04,48,11.30
2015,06,10,04,49,11.30
2015,06,10,04,50,11.30
2015,06,10,04,51,11.40
2015,06,10,04,52,11.40
2015,06,10,04,53,11.40
2015,06,10,04,54,11.40
2015,06,10,04,55,11.40
2015,06,10,04,56,11.40
2015,06,10,04,57,11.40
2015,06,10,04,58,11.40
2015,06,10,04,59,11.40
2015,06,10,05,00,11.40
2015,06,10,05,01,11.40
2015,06,10,05,02,11.40
2015,06,10,05,03,11.40
2015,06,10,05,04,11.40
2015,06,10,05,05,11.40
2015,06,10,05,06,11.40
2015,06,10,05,07,11.40
2015,06,10,05,08,11.40
2015,06,10,05,09,11.40
2015,06,10,05,10,11.40
2015,06,10,05,11,11.40
2015,06,10,05,12,11.40
2015,06,10,05,13,11.40
2015,06,10,05,14,11.40
2015,06,10,05,15,11.30
2015,06,10,05,16,11.40
2015,06,10,05,17,11.40
2015,06,10,05,18,11.40
2015,06,10,05,19,11.40
2015,06,10,05,20,11.40
2015,06,10,05,21,11.40
2015,06,10,05,22,11.40
2015,06,10,05,23,11.40
2015,06,10,05,24,11.40
2015,06,10,05,25,11.40
2015,06,10,05,26,11.40
2015,06,10,05,27,11.40
2015,06,10,05,28,11.30
2015,06,10,05,29,11.30
2015,06,10,05,30,11.30
2015,06,10,05,31,11.30
2015,06,10,05,32,11.30
2015,06,10,05,33,11.30
2015,06,10,05,34,11.30
2015,06,10,05,35,11.30
2015,06,10,05,36,11.30
2015,06,10,05,37,11.30
2015,06,10,05,38,11.30
2015,06,10,05,39,11.30
2015,06,10,05,40,11.30
2015,06,10,05,41,11.30
2015,06,10,05,42,11.30
2015,06,10,05,43,11.30
2015,06,10,05,44,11.30
2015,06,10,05,45,11.30
2015,06,10,05,46,11.30
2015,06,10,05,47,11.30
2015,06,10,05,48,11.30
2015,06,10,05,49,11.30
2015,06,10,05,50,11.30
2015,06,10,05,51,11.30
2015,06,10,05,52,11.30
2015,06,10,05,53,11.30
2015,06,10,05,54,11.30
2015,06,10,05,55,11.30
2015,06,10,05,56,11.30
2015,06,10,05,57,11.30
2015,06,10,05,58,11.30
2015,06,10,05,59,11.30
2015,06,10,06,00,11.30
2015,06,10,06,01,11.30
2015,06,10,06,02,11.30
2015,06,10,06,03,11.40
2015,06,10,06,04,11.40
2015,06,10,06,05,11.40
2015,06,10,06,06,11.40
2015,06,10,06,07,11.40
2015,06,10,06,08,11.40
2015,06,10,06,09,11.40
2015,06,10,06,10,11.40
2015,06,10,06,11,11.40
2015,06,10,06,12,11.40
2015,06,10,06,13,11.50
2015,06,10,06,14,11.50
2015,06,10,06,15,11.50
2015,06,10,06,16,11.50
2015,06,10,06,17,11.50
2015,06,10,06,18,11.60
2015,06,10,06,19,11.60
2015,06,10,06,20,11.60
2015,06,10,06,21,11.60
2015,06,10,06,22,11.70
2015,06,10,06,23,11.70
2015,06,10,06,24,11.70
2015,06,10,06,25,11.70
2015,06,10,06,26,11.70
2015,06,10,06,27,11.80
2015,06,10,06,28,11.80
2015,06,10,06,29,11.80
2015,06,10,06,30,11.80
2015,06,10,06,31,11.80
2015,06,10,06,32,11.80
2015,06,10,06,33,11.80
2015,06,10,06,34,11.90
2015,06,10,06,35,11.90
2015,06,10,06,36,11.90
2015,06,10,06,37,11.90
2015,06,10,06,38,11.90
2015,06,10,06,39,11.90
2015,06,10,06,40,12.00
2015,06,10,06,41,12.00
2015,06,10,06,42,12.00
2015,06,10,06,43,12.00
2015,06,10,06,44,12.10
2015,06,10,06,45,12.10
2015,06,10,06,46,12.10
2015,06,10,06,47,12.10
2015,06,10,06,48,12.20
2015,06,10,06,49,12.20
2015,06,10,06,50,12.20
2015,06,10,06,51,12.20
2015,06,10,06,52,12.20
2015,06,10,06,53,12.30
2015,06,10,06,54,12.30
2015,06,10,06,55,12.30
2015,06,10,06,56,12.30
2015,06,10,06,57,12.30
2015,06,10,06,58,12.40
2015,06,10,06,59,12.40
2015,06,10,07,00,12.40
2015,06,10,07,01,12.40
2015,06,10,07,02,12.40
2015,06,10,07,03,12.50
2015,06,10,07,04,12.50
2015,06,10,07,05,12.50
2015,06,10,07,06,12.50
2015,06,10,07,07,12.60
2015,06,10,07,08,12.60
2015,06,10,07,09,12.70
2015,06,10,07,10,12.70
2015,06,10,07,11,12.80
2015,06,10,07,12,12.80
2015,06,10,07,13,12.80
2015,06,10,07,14,12.80
2015,06,10,07,15,12.80
2015,06,10,07,16,12.80
2015,06,10,07,17,12.80
2015,06,10,07,18,12.80
2015,06,10,07,19,12.80
2015,06,10,07,20,12.90
2015,06,10,07,21,12.90
2015,06,10,07,22,12.90
2015,06,10,07,23,13.00
2015,06,10,07,24,13.00
2015,06,10,07,25,13.10
2015,06,10,07,26,13.10
2015,06,10,07,27,13.10
2015,06,10,07,28,13.20
2015,06,10,07,29,13.20
2015,06,10,07,30,13.20
2015,06,10,07,31,13.20
2015,06,10,07,32,13.20
2015,06,10,07,33,13.30
2015,06,10,07,34,13.30
2015,06,10,07,35,13.40
2015,06,10,07,36,13.40
2015,06,10,07,37,13.50
2015,06,10,07,38,13.50
2015,06,10,07,39,13.60
2015,06,10,07,40,13.60
2015,06,10,07,41,13.60
2015,06,10,07,42,13.70
2015,06,10,07,43,13.70
2015,06,10,07,44,13.70
2015,06,10,07,45,13.70
2015,06,10,07,46,13.70
2015,06,10,07,47,13.70
2015,06,10,07,48,13.80
2015,06,10,07,49,13.80
2015,06,10,07,50,13.80
2015,06,10,07,51,13.80
2015,06,10,07,52,13.80
2015,06,10,07,53,13.80
2015,06,10,07,54,13.90
2015,06,10,07,55,13.90
2015,06,10,07,56,14.00
2015,06,10,07,57,14.00
2015,06,10,07,58,14.10
2015,06,10,07,59,14.10
2015,06,10,08,00,14.20
2015,06,10,08,01,14.20
2015,06,10,08,02,14.20
2015,06,10,08,03,14.30
2015,06,10,08,04,14.30
2015,06,10,08,05,14.40
2015,06,10,08,06,14.40
2015,06,10,08,07,14.40
2015,06,10,08,08,14.50
2015,06,10,08,09,14.50
2015,06,10,08,10,14.50
2015,06,10,08,11,14.60
2015,06,10,08,12,14.70
2015,06,10,08,13,14.80
2015,06,10,08,14,14.80
2015,06,10,08,15,14.80
2015,06,10,08,16,14.80
2015,06,10,08,17,14.90
2015,06,10,08,18,15.00
2015,06,10,08,19,15.00
2015,06,10,08,20,15.10
2015,06,10,08,21,15.10
2015,06,10,08,22,15.20
2015,06,10,08,23,15.30
2015,06,10,08,24,15.30
2015,06,10,08,25,15.40
2015,06,10,08,26,15.30
2015,06,10,08,27,15.30
2015,06,10,08,28,15.30
2015,06,10,08,29,15.20
2015,06,10,08,30,15.10
2015,06,10,08,31,15.10
2015,06,10,08,32,15.00
2015,06,10,08,33,14.90
2015,06,10,08,34,14.90
2015,06,10,08,35,14.90
2015,06,10,08,36,14.80
2015,06,10,08,37,14.80
2015,06,10,08,38,14.80
2015,06,10,08,39,14.80
2015,06,10,08,40,14.90
2015,06,10,08,41,14.90
2015,06,10,08,42,15.00
2015,06,10,08,43,15.00
2015,06,10,08,44,15.00
2015,06,10,08,45,15.10
2015,06,10,08,46,15.10
2015,06,10,08,47,15.10
2015,06,10,08,48,15.00
2015,06,10,08,49,15.00
2015,06,10,08,50,14.90
2015,06,10,08,51,14.90
2015,06,10,08,52,14.90
2015,06,10,08,53,15.00
2015,06,10,08,54,15.00
2015,06,10,08,55,15.10
2015,06,10,08,56,15.10
2015,06,10,08,57,15.10
2015,06,10,08,58,15.00
2015,06,10,08,59,15.00
2015,06,10,09,00,15.00
2015,06,10,09,01,15.00
2015,06,10,09,02,15.00
2015,06,10,09,03,15.10
2015,06,10,09,04,15.10
2015,06,10,09,05,15.00
2015,06,10,09,06,15.00
2015,06,10,09,07,15.00
2015,06,10,09,08,15.10
2015,06,10,09,09,15.10
2015,06,10,09,10,15.20
2015,06,10,09,11,15.20
2015,06,10,09,12,15.20
2015,06,10,09,13,15.20
2015,06,10,09,14,15.20
2015,06,10,09,15,15.20
2015,06,10,09,16,15.20
2015,06,10,09,17,15.20
2015,06,10,09,18,15.20
2015,06,10,09,19,15.20
2015,06,10,09,20,15.10
2015,06,10,09,21,15.10
2015,06,10,09,22,15.10
2015,06,10,09,23,15.10
2015,06,10,09,24,15.10
2015,06,10,09,25,15.20
2015,06,10,09,26,15.20
2015,06,10,09,27,15.20
2015,06,10,09,28,15.20
2015,06,10,09,29,15.30
2015,06,10,09,30,15.30
2015,06,10,09,31,15.30
2015,06,10,09,32,15.40
2015,06,10,09,33,15.40
2015,06,10,09,34,15.40
2015,06,10,09,35,15.40
2015,06,10,09,36,15.40
2015,06,10,09,37,15.40
2015,06,10,09,38,15.40
2015,06,10,09,39,15.50
2015,06,10,09,40,15.50
2015,06,10,09,41,15.50
2015,06,10,09,42,15.60
2015,06,10,09,43,15.70
2015,06,10,09,44,15.70
2015,06,10,09,45,15.70
2015,06,10,09,46,15.70
2015,06,10,09,47,15.70
2015,06,10,09,48,15.80
2015,06,10,09,49,15.80
2015,06,10,09,50,15.80
2015,06,10,09,51,15.80
2015,06,10,09,52,15.80
2015,06,10,09,53,15.80
2015,06,10,09,54,15.80
2015,06,10,09,55,15.80
2015,06,10,09,56,15.80
2015,06,10,09,57,15.80
2015,06,10,09,58,15.80
2015,06,10,09,59,15.80
2015,06,10,10,00,15.90
2015,06,10,10,01,15.90
2015,06,10,10,02,15.90
2015,06,10,10,03,15.90
2015,06,10,10,04,16.00
2015,06,10,10,05,16.00
2015,06,10,10,06,16.10
2015,06,10,10,07,16.00
2015,06,10,10,08,16.00
2015,06,10,10,09,16.10
2015,06,10,10,10,16.00
2015,06,10,10,11,16.00
2015,06,10,10,12,15.90
2015,06,10,10,13,16.00
2015,06,10,10,14,16.00
2015,06,10,10,15,16.10
2015,06,10,10,16,16.10
2015,06,10,10,17,16.10
2015,06,10,10,18,16.10
2015,06,10,10,19,16.10
2015,06,10,10,20,16.00
2015,06,10,10,21,15.90
2015,06,10,10,22,15.90
2015,06,10,10,23,15.90
2015,06,10,10,24,16.00
2015,06,10,10,25,16.00
2015,06,10,10,26,16.10
2015,06,10,10,27,16.10
2015,06,10,10,28,16.10
2015,06,10,10,29,16.20
2015,06,10,10,30,16.20
2015,06,10,10,31,16.30
2015,06,10,10,32,16.30
2015,06,10,10,33,16.30
2015,06,10,10,34,16.40
2015,06,10,10,35,16.40
2015,06,10,10,36,16.50
2015,06,10,10,37,16.50
2015,06,10,10,38,16.60
2015,06,10,10,39,16.70
2015,06,10,10,40,16.70
2015,06,10,10,41,16.80
2015,06,10,10,42,16.90
2015,06,10,10,43,16.90
2015,06,10,10,44,16.90
2015,06,10,10,45,16.90
2015,06,10,10,46,17.00
2015,06,10,10,47,17.00
2015,06,10,10,48,17.10
2015,06,10,10,49,17.10
2015,06,10,10,50,17.10
2015,06,10,10,51,17.00
2015,06,10,10,52,17.00
2015,06,10,10,53,17.00
2015,06,10,10,54,17.00
2015,06,10,10,55,17.00
2015,06,10,10,56,17.00
2015,06,10,10,57,17.00
2015,06,10,10,58,17.00
2015,06,10,10,59,16.90
2015,06,10,11,00,16.90
2015,06,10,11,01,16.80
2015,06,10,11,02,16.80
2015,06,10,11,03,16.70
2015,06,10,11,04,16.70
2015,06,10,11,05,16.70
2015,06,10,11,06,16.70
2015,06,10,11,07,16.60
2015,06,10,11,08,16.50
2015,06,10,11,09,16.50
2015,06,10,11,10,16.40
2015,06,10,11,11,16.30
2015,06,10,11,12,16.30
2015,06,10,11,13,16.30
2015,06,10,11,14,16.30
2015,06,10,11,15,16.30
2015,06,10,11,16,16.20
2015,06,10,11,17,16.30
2015,06,10,11,18,16.30
2015,06,10,11,19,16.30
2015,06,10,11,20,16.40
2015,06,10,11,21,16.40
2015,06,10,11,22,16.40
2015,06,10,11,23,16.50
2015,06,10,11,24,16.50
2015,06,10,11,25,16.60
2015,06,10,11,26,16.60
2015,06,10,11,27,16.70
2015,06,10,11,28,16.80
2015,06,10,11,29,16.80
2015,06,10,11,30,16.90
2015,06,10,11,31,16.90
2015,06,10,11,32,17.00
2015,06,10,11,33,16.90
2015,06,10,11,34,17.00
2015,06,10,11,35,17.10
2015,06,10,11,36,17.20
2015,06,10,11,37,17.30
2015,06,10,11,38,17.40
2015,06,10,11,39,17.50
2015,06,10,11,40,17.50
2015,06,10,11,41,17.60
2015,06,10,11,42,17.70
2015,06,10,11,43,17.60
2015,06,10,11,44,17.50
2015,06,10,11,45,17.50
2015,06,10,11,46,17.50
2015,06,10,11,47,17.50
2015,06,10,11,48,17.50
2015,06,10,11,49,17.50
2015,06,10,11,50,17.60
2015,06,10,11,51,17.60
2015,06,10,11,52,17.70
2015,06,10,11,53,17.70
2015,06,10,11,54,17.70
2015,06,10,11,55,17.80
2015,06,10,11,56,17.80
2015,06,10,11,57,17.80
2015,06,10,11,58,17.90
2015,06,10,11,59,17.90
2015,06,10,12,00,17.90
2015,06,10,12,01,17.90
2015,06,10,12,02,17.90
2015,06,10,12,03,18.00
2015,06,10,12,04,18.10
2015,06,10,12,05,18.20
2015,06,10,12,06,18.30
2015,06,10,12,07,18.40
2015,06,10,12,08,18.50
2015,06,10,12,09,18.60
2015,06,10,12,10,18.60
2015,06,10,12,11,18.60
2015,06,10,12,12,18.60
2015,06,10,12,13,18.60
2015,06,10,12,14,18.50
2015,06,10,12,15,18.40
2015,06,10,12,16,18.40
2015,06,10,12,17,18.40
2015,06,10,12,18,18.30
2015,06,10,12,19,18.20
2015,06,10,12,20,18.20
2015,06,10,12,21,18.20
2015,06,10,12,22,18.20
2015,06,10,12,23,18.20
2015,06,10,12,24,18.30
2015,06,10,12,25,18.30
2015,06,10,12,26,18.40
2015,06,10,12,27,18.50
2015,06,10,12,28,18.60
2015,06,10,12,29,18.60
2015,06,10,12,30,18.60
2015,06,10,12,31,18.60
2015,06,10,12,32,18.60
2015,06,10,12,33,18.60
2015,06,10,12,34,18.60
2015,06,10,12,35,18.60
2015,06,10,12,36,18.60
2015,06,10,12,37,18.60
2015,06,10,12,38,18.70
2015,06,10,12,39,18.70
2015,06,10,12,40,18.70
2015,06,10,12,41,18.70
2015,06,10,12,42,18.70
2015,06,10,12,43,18.70
2015,06,10,12,44,18.70
2015,06,10,12,45,18.70
2015,06,10,12,46,18.70
2015,06,10,12,47,18.70
2015,06,10,12,48,18.80
2015,06,10,12,49,18.80
2015,06,10,12,50,18.80
2015,06,10,12,51,18.90
2015,06,10,12,52,19.00
2015,06,10,12,53,19.00
2015,06,10,12,54,19.00
2015,06,10,12,55,19.00
2015,06,10,12,56,19.00
2015,06,10,12,57,19.00
2015,06,10,12,58,19.00
2015,06,10,12,59,19.00
2015,06,10,13,00,19.00
2015,06,10,13,01,19.10
2015,06,10,13,02,19.20
2015,06,10,13,03,19.20
2015,06,10,13,04,19.30
2015,06,10,13,05,19.30
2015,06,10,13,06,19.40
2015,06,10,13,07,19.60
2015,06,10,13,08,19.70
2015,06,10,13,09,19.70
2015,06,10,13,10,19.70
2015,06,10,13,11,19.70
2015,06,10,13,12,19.70
2015,06,10,13,13,19.70
2015,06,10,13,14,19.80
2015,06,10,13,15,19.80
2015,06,10,13,16,19.70
2015,06,10,13,17,19.80
2015,06,10,13,18,19.80
2015,06,10,13,19,19.90
2015,06,10,13,20,19.90
2015,06,10,13,21,20.00
2015,06,10,13,22,20.00
2015,06,10,13,23,20.10
2015,06,10,13,24,20.20
2015,06,10,13,25,20.20
2015,06,10,13,26,20.20
2015,06,10,13,27,20.20
2015,06,10,13,28,20.10
2015,06,10,13,29,20.10
2015,06,10,13,30,20.00
2015,06,10,13,31,20.00
2015,06,10,13,32,20.00
2015,06,10,13,33,20.10
2015,06,10,13,34,20.20
2015,06,10,13,35,20.20
2015,06,10,13,36,20.20
2015,06,10,13,37,20.20
2015,06,10,13,38,20.30
2015,06,10,13,39,20.20
2015,06,10,13,40,20.20
2015,06,10,13,41,20.10
2015,06,10,13,42,20.10
2015,06,10,13,43,20.10
2015,06,10,13,44,20.00
2015,06,10,13,45,20.00
2015,06,10,13,46,20.10
2015,06,10,13,47,20.10
2015,06,10,13,48,20.10
2015,06,10,13,49,20.10
2015,06,10,13,50,20.10
2015,06,10,13,51,20.10
2015,06,10,13,52,20.10
2015,06,10,13,53,20.10
2015,06,10,13,54,20.10
2015,06,10,13,55,20.10
2015,06,10,13,56,20.10
2015,06,10,13,57,20.10
2015,06,10,13,58,20.20
2015,06,10,13,59,20.20
2015,06,10,14,00,20.20
2015,06,10,14,01,20.20
2015,06,10,14,02,20.20
2015,06,10,14,03,20.30
2015,06,10,14,04,20.30
2015,06,10,14,05,20.30
2015,06,10,14,06,20.30
2015,06,10,14,07,20.30
2015,06,10,14,08,20.40
2015,06,10,14,09,20.40
2015,06,10,14,10,20.40
2015,06,10,14,11,20.50
2015,06,10,14,12,20.60
2015,06,10,14,13,20.70
2015,06,10,14,14,20.70
2015,06,10,14,15,20.80
2015,06,10,14,16,20.80
2015,06,10,14,17,20.90
2015,06,10,14,18,20.90
2015,06,10,14,19,21.00
2015,06,10,14,20,21.10
2015,06,10,14,21,21.20
2015,06,10,14,22,21.20
2015,06,10,14,23,21.20
2015,06,10,14,24,21.20
2015,06,10,14,25,21.20
2015,06,10,14,26,21.30
2015,06,10,14,27,21.30
2015,06,10,14,28,21.30
2015,06,10,14,29,21.30
2015,06,10,14,30,21.40
2015,06,10,14,31,21.40
2015,06,10,14,32,21.40
2015,06,10,14,33,21.40
2015,06,10,14,34,21.50
2015,06,10,14,35,21.50
2015,06,10,14,36,21.60
2015,06,10,14,37,21.60
2015,06,10,14,38,21.60
2015,06,10,14,39,21.70
2015,06,10,14,40,21.70
2015,06,10,14,41,21.70
2015,06,10,14,42,21.70
2015,06,10,14,43,21.80
2015,06,10,14,44,21.80
2015,06,10,14,45,21.90
2015,06,10,14,46,21.90
2015,06,10,14,47,21.90
2015,06,10,14,48,22.00
2015,06,10,14,49,22.00
2015,06,10,14,50,22.00
2015,06,10,14,51,22.10
2015,06,10,14,52,22.10
2015,06,10,14,53,22.10
2015,06,10,14,54,22.10
2015,06,10,14,55,22.20
2015,06,10,14,56,22.20
2015,06,10,14,57,22.20
2015,06,10,14,58,22.30
2015,06,10,14,59,22.30
2015,06,10,15,00,22.30
2015,06,10,15,01,22.40
2015,06,10,15,02,22.40
2015,06,10,15,03,22.50
2015,06,10,15,04,22.50
2015,06,10,15,05,22.50
2015,06,10,15,06,22.50
2015,06,10,15,07,22.40
2015,06,10,15,08,22.40
2015,06,10,15,09,22.30
2015,06,10,15,10,22.30
2015,06,10,15,11,22.30
2015,06,10,15,12,22.30
2015,06,10,15,13,22.30
2015,06,10,15,14,22.20
2015,06,10,15,15,22.20
2015,06,10,15,16,22.30
2015,06,10,15,17,22.20
2015,06,10,15,18,22.20
2015,06,10,15,19,22.20
2015,06,10,15,20,22.10
2015,06,10,15,21,22.10
2015,06,10,15,22,22.10
2015,06,10,15,23,22.10
2015,06,10,15,24,22.10
2015,06,10,15,25,22.00
2015,06,10,15,26,22.00
2015,06,10,15,27,21.90
2015,06,10,15,28,21.80
2015,06,10,15,29,21.80
2015,06,10,15,30,21.90
2015,06,10,15,31,21.90
2015,06,10,15,32,22.00
2015,06,10,15,33,22.00
2015,06,10,15,34,22.10
2015,06,10,15,35,22.10
2015,06,10,15,36,22.20
2015,06,10,15,37,22.20
2015,06,10,15,38,22.20
2015,06,10,15,39,22.20
2015,06,10,15,40,22.20
2015,06,10,15,41,22.20
2015,06,10,15,42,22.30
2015,06,10,15,43,22.30
2015,06,10,15,44,22.40
2015,06,10,15,45,22.40
2015,06,10,15,46,22.40
2015,06,10,15,47,22.40
2015,06,10,15,48,22.30
2015,06,10,15,49,22.30
2015,06,10,15,50,22.30
2015,06,10,15,51,22.30
2015,06,10,15,52,22.20
2015,06,10,15,53,22.10
2015,06,10,15,54,22.00
2015,06,10,15,55,21.90
2015,06,10,15,56,21.90
2015,06,10,15,57,21.80
2015,06,10,15,58,21.70
2015,06,10,15,59,21.70
2015,06,10,16,00,21.70
2015,06,10,16,01,21.80
2015,06,10,16,02,21.80
2015,06,10,16,03,21.80
2015,06,10,16,04,21.80
2015,06,10,16,05,21.80
2015,06,10,16,06,21.80
2015,06,10,16,07,21.80
2015,06,10,16,08,21.80
2015,06,10,16,09,21.80
2015,06,10,16,10,21.90
2015,06,10,16,11,22.00
2015,06,10,16,12,22.00
2015,06,10,16,13,22.10
2015,06,10,16,14,22.20
2015,06,10,16,15,22.30
2015,06,10,16,16,22.40
2015,06,10,16,17,22.50
2015,06,10,16,18,22.50
2015,06,10,16,19,22.60
2015,06,10,16,20,22.60
2015,06,10,16,21,22.60
2015,06,10,16,22,22.70
2015,06,10,16,23,22.70
2015,06,10,16,24,22.70
2015,06,10,16,25,22.80
2015,06,10,16,26,22.90
2015,06,10,16,27,22.90
2015,06,10,16,28,23.00
2015,06,10,16,29,23.00
2015,06,10,16,30,23.10
2015,06,10,16,31,23.10
2015,06,10,16,32,23.10
2015,06,10,16,33,23.20
2015,06,10,16,34,23.20
2015,06,10,16,35,23.20
2015,06,10,16,36,23.20
2015,06,10,16,37,23.20
2015,06,10,16,38,23.20
2015,06,10,16,39,23.20
2015,06,10,16,40,23.10
2015,06,10,16,41,23.10
2015,06,10,16,42,23.10
2015,06,10,16,43,23.10
2015,06,10,16,44,23.10
2015,06,10,16,45,23.10
2015,06,10,16,46,23.10
2015,06,10,16,47,23.00
2015,06,10,16,48,23.00
2015,06,10,16,49,23.00
2015,06,10,16,50,22.90
2015,06,10,16,51,22.90
2015,06,10,16,52,22.90
2015,06,10,16,53,22.90
2015,06,10,16,54,22.90
2015,06,10,16,55,22.90
2015,06,10,16,56,22.90
2015,06,10,16,57,22.90
2015,06,10,16,58,22.80
2015,06,10,16,59,22.80
2015,06,10,17,00,22.80
2015,06,10,17,01,22.80
2015,06,10,17,02,22.90
2015,06,10,17,03,23.00
2015,06,10,17,04,23.00
2015,06,10,17,05,22.90
2015,06,10,17,06,22.90
2015,06,10,17,07,22.80
2015,06,10,17,08,22.80
2015,06,10,17,09,22.80
2015,06,10,17,10,22.80
2015,06,10,17,11,22.70
2015,06,10,17,12,22.70
2015,06,10,17,13,22.70
2015,06,10,17,14,22.70
2015,06,10,17,15,22.70
2015,06,10,17,16,22.70
2015,06,10,17,17,22.60
2015,06,10,17,18,22.60
2015,06,10,17,19,22.70